| time (UTC) | temp F | wind direction | speed knots | gust knots | rain 1hr in | rain 24hr in | rain mn in | humidity % | barometer mb |
| 20260505024138 | 58 | 284 | 5.2 | 11.3 | 0.00 | 0.00 | 0.00 | 78 | |
| 20260505023934 | 58 | 271 | 9.6 | 11.3 | 0.00 | 0.00 | 0.00 | 78 | |
| 20260505023732 | 58 | 255 | 6.1 | 11.3 | 0.00 | 0.00 | 0.00 | 78 | |
| 20260505023530 | 58 | 229 | 8.7 | 11.3 | 0.00 | 0.00 | 0.00 | 78 | |
| 20260505023128 | 59 | 258 | 6.1 | 11.3 | 0.00 | 0.00 | 0.00 | 77 | |
| 20260505022926 | 59 | 275 | 7.0 | 11.3 | 0.00 | 0.00 | 0.00 | 77 | |
| 20260505022725 | 59 | 258 | 6.1 | 13.0 | 0.00 | 0.00 | 0.00 | 77 | |
| 20260505022522 | 59 | 260 | 4.3 | 13.0 | 0.00 | 0.00 | 0.00 | 78 | |
| 20260505022320 | 59 | 282 | 2.6 | 10.4 | 0.00 | 0.00 | 0.00 | 78 | |
| 20260505021513 | 59 | 274 | 6.1 | 10.4 | 0.00 | 0.00 | 0.00 | 77 | |
| 20260505021311 | 59 | 262 | 7.0 | 9.6 | 0.00 | 0.00 | 0.00 | 77 | |
| 20260505020907 | 60 | 241 | 5.2 | 9.6 | 0.00 | 0.00 | 0.00 | 76 | |
| 20260505020705 | 60 | 116 | 0.9 | 7.8 | 0.00 | 0.00 | 0.00 | 75 | |
| 20260505020504 | 60 | 227 | 3.5 | 7.8 | 0.00 | 0.00 | 0.00 | 75 | |
| 20260505020100 | 60 | 98 | 2.6 | 11.3 | 0.00 | 0.00 | 0.00 | 75 | |
| 20260505015858 | 60 | 262 | 2.6 | 11.3 | 0.00 | 0.00 | 0.00 | 75 | |
| 20260505015454 | 60 | 195 | 0.9 | 5.2 | 0.00 | 0.00 | 0.00 | 76 | |
| 20260505015253 | 60 | 226 | 0.9 | 6.1 | 0.00 | 0.00 | 0.00 | 76 | |
| 20260505015050 | 60 | 195 | 0.0 | 6.1 | 0.00 | 0.00 | 0.00 | 76 | |
| 20260505014849 | 60 | 229 | 5.2 | 6.1 | 0.00 | 0.00 | 0.00 | 76 | |
| 20260505014647 | 60 | 248 | 3.5 | 3.5 | 0.00 | 0.00 | 0.00 | 76 | |
| 20260505014444 | 60 | 268 | 0.0 | 3.5 | 0.00 | 0.00 | 0.00 | 75 | |
| 20260505014243 | 60 | 222 | 0.9 | 7.8 | 0.00 | 0.00 | 0.00 | 75 | |
| 20260505013839 | 60 | 288 | 0.9 | 7.8 | 0.00 | 0.00 | 0.00 | 76 | |
| 20260505013637 | 60 | 286 | 2.6 | 7.8 | 0.00 | 0.00 | 0.00 | 76 | |
| 20260505013435 | 60 | 257 | 3.5 | 7.8 | 0.00 | 0.00 | 0.00 | 76 | |
| 20260505013233 | 60 | 268 | 1.7 | 7.8 | 0.00 | 0.00 | 0.00 | 76 | |
| 20260505013031 | 60 | 250 | 4.3 | 7.8 | 0.00 | 0.00 | 0.00 | 76 | |
| 20260505012829 | 60 | 278 | 4.3 | 7.8 | 0.00 | 0.00 | 0.00 | 76 | |
| 20260505012628 | 60 | 267 | 5.2 | 11.3 | 0.00 | 0.00 | 0.00 | 76 | |
| 20260505012426 | 60 | 261 | 6.1 | 11.3 | 0.00 | 0.00 | 0.00 | 76 | |
| 20260505012022 | 60 | 267 | 9.6 | 11.3 | 0.00 | 0.00 | 0.00 | 75 | |
| 20260505011820 | 60 | 262 | 6.1 | 7.0 | 0.00 | 0.00 | 0.00 | 74 | |
| 20260505011618 | 60 | 268 | 7.0 | 7.0 | 0.00 | 0.00 | 0.00 | 74 | |
| 20260505011416 | 61 | 254 | 7.8 | 7.0 | 0.00 | 0.00 | 0.00 | 72 | |
| 20260505011214 | 61 | 116 | 0.0 | 8.7 | 0.00 | 0.00 | 0.00 | 73 | |
| 20260505011011 | 61 | 220 | 0.9 | 8.7 | 0.00 | 0.00 | 0.00 | 73 | |
| 20260505010811 | 61 | 195 | 0.0 | 7.8 | 0.00 | 0.00 | 0.00 | 73 | |
| 20260505010608 | 61 | 264 | 1.7 | 7.8 | 0.00 | 0.00 | 0.00 | 74 | |
| 20260505010407 | 61 | 260 | 7.0 | 7.8 | 0.00 | 0.00 | 0.00 | 73 | |
| 20260505010203 | 61 | 260 | 5.2 | 11.3 | 0.00 | 0.00 | 0.00 | 72 | |
| 20260505010003 | 61 | 151 | 2.6 | 11.3 | 0.00 | 0.00 | 0.00 | 72 | |
| 20260505005801 | 61 | 253 | 5.2 | 12.2 | 0.00 | 0.00 | 0.00 | 71 | |
| 20260505005559 | 61 | 246 | 7.8 | 12.2 | 0.00 | 0.00 | 0.00 | 70 | |
| 20260505005357 | 61 | 253 | 4.3 | 12.2 | 0.00 | 0.00 | 0.00 | 69 | |
| 20260505004550 | 62 | 262 | 8.7 | 12.2 | 0.00 | 0.00 | 0.00 | 67 | |
| 20260505004347 | 62 | 255 | 8.7 | 12.2 | 0.00 | 0.00 | 0.00 | 67 | |
| 20260505004146 | 62 | 206 | 2.6 | 11.3 | 0.00 | 0.00 | 0.00 | 67 | |
| 20260505003944 | 62 | 174 | 6.1 | 11.3 | 0.00 | 0.00 | 0.00 | 67 | |
| 20260505003742 | 62 | 264 | 7.0 | 13.9 | 0.00 | 0.00 | 0.00 | 66 | |
| 20260505003538 | 62 | 237 | 1.7 | 13.9 | 0.00 | 0.00 | 0.00 | 66 | |
| 20260505003339 | 62 | 157 | 6.1 | 13.9 | 0.00 | 0.00 | 0.00 | 66 | |
| 20260505003134 | 62 | 293 | 7.0 | 11.3 | 0.00 | 0.00 | 0.00 | 66 | |
| 20260505002934 | 62 | 277 | 6.1 | 11.3 | 0.00 | 0.00 | 0.00 | 65 | |
| 20260505002731 | 63 | 258 | 7.0 | 13.0 | 0.00 | 0.00 | 0.00 | 66 | |
| 20260505002530 | 63 | 255 | 1.7 | 13.0 | 0.00 | 0.00 | 0.00 | 65 | |
| 20260505002328 | 63 | 262 | 7.0 | 13.0 | 0.00 | 0.00 | 0.00 | 65 | |
| 20260505002127 | 62 | 250 | 7.8 | 12.2 | 0.00 | 0.00 | 0.00 | 64 | |
| 20260505001925 | 63 | 260 | 6.1 | 12.2 | 0.00 | 0.00 | 0.00 | 63 | |
| 20260505001519 | 64 | 244 | 7.8 | 12.2 | 0.00 | 0.00 | 0.00 | 62 | |
| 20260505001319 | 64 | 306 | 1.7 | 10.4 | 0.00 | 0.00 | 0.00 | 62 | |
| 20260505001117 | 64 | 261 | 7.0 | 10.4 | 0.00 | 0.00 | 0.00 | 63 | |
| 20260505000913 | 64 | 260 | 7.0 | 10.4 | 0.00 | 0.00 | 0.00 | 60 | |
| 20260505000510 | 65 | 322 | 0.9 | 8.7 | 0.00 | 0.00 | 0.00 | 59 | |
| 20260505000310 | 65 | 261 | 7.0 | 13.0 | 0.00 | 0.00 | 0.00 | 58 | |
| 20260505000107 | 65 | 254 | 4.3 | 13.0 | 0.00 | 0.00 | 0.00 | 59 | |
| 20260504235906 | 65 | 295 | 1.7 | 13.0 | 0.00 | 0.00 | 0.00 | 60 | |
| 20260504235704 | 64 | 264 | 7.8 | 13.9 | 0.00 | 0.00 | 0.00 | 60 | |
| 20260504235502 | 64 | 255 | 7.8 | 13.9 | 0.00 | 0.00 | 0.00 | 60 | |
| 20260504235058 | 64 | 262 | 9.6 | 13.9 | 0.00 | 0.00 | 0.00 | 58 | |
| 20260504234856 | 64 | 262 | 9.6 | 13.9 | 0.00 | 0.00 | 0.00 | 58 | |
| 20260504234654 | 65 | 271 | 1.7 | 10.4 | 0.00 | 0.00 | 0.00 | 60 | |
| 20260504234457 | 65 | 298 | 2.6 | 10.4 | 0.00 | 0.00 | 0.00 | 60 | |
| 20260504234250 | 64 | 267 | 5.2 | 13.0 | 0.00 | 0.00 | 0.00 | 60 | |
| 20260504234048 | 65 | 261 | 5.2 | 13.0 | 0.00 | 0.00 | 0.00 | 60 | |
| 20260504233847 | 64 | 286 | 2.6 | 13.0 | 0.00 | 0.00 | 0.00 | 59 | |
| 20260504233645 | 65 | 258 | 11.3 | 11.3 | 0.00 | 0.00 | 0.00 | 60 | |
| 20260504233443 | 65 | 202 | 0.9 | 11.3 | 0.00 | 0.00 | 0.00 | 61 | |
| 20260504233241 | 65 | 261 | 2.6 | 10.4 | 0.00 | 0.00 | 0.00 | 60 | |
| 20260504232837 | 64 | 265 | 6.1 | 10.4 | 0.00 | 0.00 | 0.00 | 59 | |
| 20260504232635 | 64 | 264 | 10.4 | 12.2 | 0.00 | 0.00 | 0.00 | 61 | |
| 20260504232231 | 64 | 257 | 10.4 | 16.5 | 0.00 | 0.00 | 0.00 | 59 | |
| 20260504232030 | 64 | 257 | 7.0 | 16.5 | 0.00 | 0.00 | 0.00 | 58 | |
| 20260504231828 | 64 | 261 | 7.0 | 16.5 | 0.00 | 0.00 | 0.00 | 58 | |
| 20260504231626 | 64 | 261 | 6.1 | 13.9 | 0.00 | 0.00 | 0.00 | 59 | |
| 20260504231422 | 64 | 264 | 10.4 | 13.9 | 0.00 | 0.00 | 0.00 | 58 | |
| 20260504231222 | 64 | 257 | 7.0 | 12.2 | 0.00 | 0.00 | 0.00 | 58 | |
| 20260504231020 | 64 | 243 | 9.6 | 12.2 | 0.00 | 0.00 | 0.00 | 58 | |
| 20260504230818 | 66 | 255 | 7.8 | 8.7 | 0.00 | 0.00 | 0.00 | 57 | |
| 20260504230614 | 65 | 161 | 1.7 | 8.7 | 0.00 | 0.00 | 0.00 | 58 | |
| 20260504230414 | 66 | 258 | 4.3 | 8.7 | 0.00 | 0.00 | 0.00 | 57 | |
| 20260504230212 | 66 | 217 | 0.9 | 14.8 | 0.00 | 0.00 | 0.00 | 57 | |
| 20260504230010 | 66 | 209 | 1.7 | 14.8 | 0.00 | 0.00 | 0.00 | 58 | |
| 20260504225808 | 66 | 250 | 6.1 | 14.8 | 0.00 | 0.00 | 0.00 | 57 | |
| 20260504225607 | 66 | 226 | 8.7 | 14.8 | 0.00 | 0.00 | 0.00 | 56 | |
| 20260504225405 | 66 | 260 | 3.5 | 14.8 | 0.00 | 0.00 | 0.00 | 56 | |
| 20260504225203 | 66 | 215 | 1.7 | 14.8 | 0.00 | 0.00 | 0.00 | 57 | |
| 20260504225001 | 66 | 354 | 1.7 | 14.8 | 0.00 | 0.00 | 0.00 | 57 | |
| 20260504224759 | 66 | 261 | 8.7 | 10.4 | 0.00 | 0.00 | 0.00 | 58 | |
| 20260504224558 | 66 | 260 | 2.6 | 10.4 | 0.00 | 0.00 | 0.00 | 57 | |
| 20260504224356 | 66 | 303 | 2.6 | 10.4 | 0.00 | 0.00 | 0.00 | 57 | |
| 20260504224154 | 66 | 246 | 6.1 | 7.8 | 0.00 | 0.00 | 0.00 | 57 | |
| 20260504223548 | 66 | 236 | 1.7 | 8.7 | 0.00 | 0.00 | 0.00 | 58 | |
| 20260504223346 | 66 | 299 | 2.6 | 8.7 | 0.00 | 0.00 | 0.00 | 56 | |
| 20260504223144 | 66 | 184 | 5.2 | 11.3 | 0.00 | 0.00 | 0.00 | 57 | |
| 20260504222940 | 67 | 254 | 1.7 | 11.3 | 0.00 | 0.00 | 0.00 | 54 | |
| 20260504222740 | 66 | 253 | 5.2 | 10.4 | 0.00 | 0.00 | 0.00 | 56 | |
| 20260504222538 | 67 | 278 | 4.3 | 10.4 | 0.00 | 0.00 | 0.00 | 56 | |
| 20260504222336 | 67 | 289 | 7.0 | 10.4 | 0.00 | 0.00 | 0.00 | 55 | |
| 20260504222134 | 67 | 229 | 3.5 | 15.6 | 0.00 | 0.00 | 0.00 | 54 | |
| 20260504221731 | 66 | 313 | 0.9 | 13.9 | 0.00 | 0.00 | 0.00 | 55 | |
| 20260504221529 | 66 | 247 | 7.8 | 13.9 | 0.00 | 0.00 | 0.00 | 56 | |
| 20260504221327 | 66 | 258 | 6.1 | 13.9 | 0.00 | 0.00 | 0.00 | 56 | |
| 20260504221127 | 66 | 157 | 2.6 | 13.9 | 0.00 | 0.00 | 0.00 | 55 | |
| 20260504220721 | 66 | 243 | 12.2 | 21.7 | 0.00 | 0.00 | 0.00 | 55 | |
| 20260504220519 | 66 | 261 | 3.5 | 21.7 | 0.00 | 0.00 | 0.00 | 53 | |
| 20260504220318 | 65 | 279 | 14.8 | 15.6 | 0.00 | 0.00 | 0.00 | 55 | |
| 20260504215914 | 66 | 250 | 12.2 | 15.6 | 0.00 | 0.00 | 0.00 | 53 | |
| 20260504215711 | 67 | 262 | 4.3 | 19.1 | 0.00 | 0.00 | 0.00 | 52 | |
| 20260504215509 | 66 | 281 | 5.2 | 19.1 | 0.00 | 0.00 | 0.00 | 53 | |
| 20260504215308 | 66 | 258 | 11.3 | 16.5 | 0.00 | 0.00 | 0.00 | 54 | |
| 20260504215106 | 66 | 240 | 4.3 | 16.5 | 0.00 | 0.00 | 0.00 | 56 | |
| 20260504214904 | 65 | 255 | 14.8 | 16.5 | 0.00 | 0.00 | 0.00 | 54 | |
| 20260504214702 | 66 | 254 | 16.5 | 19.1 | 0.00 | 0.00 | 0.00 | 54 | |
| 20260504214500 | 66 | 264 | 12.2 | 19.1 | 0.00 | 0.00 | 0.00 | 53 | |
| 20260504214258 | 66 | 262 | 12.2 | 19.1 | 0.00 | 0.00 | 0.00 | 53 | |
| 20260504214056 | 65 | 265 | 12.2 | 19.1 | 0.00 | 0.00 | 0.00 | 52 | |
| 20260504213855 | 66 | 222 | 8.7 | 19.1 | 0.00 | 0.00 | 0.00 | 56 | |
| 20260504213653 | 66 | 247 | 10.4 | 20.9 | 0.00 | 0.00 | 0.00 | 55 | |
| 20260504213249 | 66 | 243 | 11.3 | 18.2 | 0.00 | 0.00 | 0.00 | 55 | |
| 20260504213047 | 66 | 264 | 3.5 | 18.2 | 0.00 | 0.00 | 0.00 | 53 | |
| 20260504212845 | 66 | 250 | 7.8 | 18.2 | 0.00 | 0.00 | 0.00 | 53 | |
| 20260504212643 | 66 | 279 | 12.2 | 18.2 | 0.00 | 0.00 | 0.00 | 53 | |
| 20260504212441 | 66 | 267 | 15.6 | 18.2 | 0.00 | 0.00 | 0.00 | 52 | |
| 20260504212239 | 66 | 247 | 7.8 | 14.8 | 0.00 | 0.00 | 0.00 | 51 | |
| 20260504212038 | 66 | 257 | 12.2 | 14.8 | 0.00 | 0.00 | 0.00 | 51 | |
| 20260504211836 | 67 | 264 | 7.0 | 14.8 | 0.00 | 0.00 | 0.00 | 50 | |
| 20260504211432 | 66 | 247 | 11.3 | 18.2 | 0.00 | 0.00 | 0.00 | 50 | |
| 20260504211230 | 66 | 291 | 11.3 | 21.7 | 0.00 | 0.00 | 0.00 | 50 | |
| 20260504211028 | 67 | 248 | 15.6 | 21.7 | 0.00 | 0.00 | 0.00 | 52 | |
| 20260504210826 | 66 | 268 | 13.9 | 21.7 | 0.00 | 0.00 | 0.00 | 52 | |
| 20260504210624 | 66 | 258 | 11.3 | 18.2 | 0.00 | 0.00 | 0.00 | 50 | |
| 20260504210423 | 66 | 292 | 6.1 | 18.2 | 0.00 | 0.00 | 0.00 | 50 | |
| 20260504210221 | 66 | 247 | 10.4 | 20.0 | 0.00 | 0.00 | 0.00 | 51 | |
| 20260504210019 | 67 | 243 | 7.8 | 20.0 | 0.00 | 0.00 | 0.00 | 50 | |
| 20260504205817 | 66 | 246 | 12.2 | 18.2 | 0.00 | 0.00 | 0.00 | 50 | |
| 20260504205413 | 66 | 261 | 13.0 | 18.2 | 0.00 | 0.00 | 0.00 | 48 | |
| 20260504205009 | 67 | 254 | 8.7 | 19.1 | 0.00 | 0.00 | 0.00 | 49 | |
| 20260504204808 | 67 | 260 | 14.8 | 15.6 | 0.00 | 0.00 | 0.00 | 49 | |
| 20260504204606 | 67 | 272 | 7.8 | 15.6 | 0.00 | 0.00 | 0.00 | 48 | |
| 20260504204402 | 67 | 271 | 7.0 | 15.6 | 0.00 | 0.00 | 0.00 | 49 | |
| 20260504204203 | 67 | 254 | 12.2 | 17.4 | 0.00 | 0.00 | 0.00 | 51 | |
| 20260504203352 | 67 | 272 | 14.8 | 16.5 | 0.00 | 0.00 | 0.00 | 44 | |
| 20260504203152 | 67 | 255 | 11.3 | 17.4 | 0.00 | 0.00 | 0.00 | 45 | |
| 20260504202950 | 67 | 272 | 7.0 | 17.4 | 0.00 | 0.00 | 0.00 | 48 | |
| 20260504202748 | 67 | 194 | 0.9 | 16.5 | 0.00 | 0.00 | 0.00 | 49 | |
| 20260504202547 | 67 | 243 | 7.0 | 16.5 | 0.00 | 0.00 | 0.00 | 48 | |
| 20260504202345 | 67 | 254 | 11.3 | 16.5 | 0.00 | 0.00 | 0.00 | 48 | |
| 20260504202143 | 66 | 248 | 7.8 | 19.1 | 0.00 | 0.00 | 0.00 | 49 | |
| 20260504201941 | 66 | 281 | 7.8 | 19.1 | 0.00 | 0.00 | 0.00 | 48 | |
| 20260504201738 | 66 | 267 | 7.8 | 15.6 | 0.00 | 0.00 | 0.00 | 48 | |
| 20260504201540 | 66 | 284 | 9.6 | 15.6 | 0.00 | 0.00 | 0.00 | 46 | |
| 20260504201133 | 66 | 271 | 7.0 | 16.5 | 0.00 | 0.00 | 0.00 | 48 | |
| 20260504200931 | 66 | 260 | 8.7 | 16.5 | 0.00 | 0.00 | 0.00 | 51 | |
| 20260504200729 | 66 | 267 | 13.0 | 12.2 | 0.00 | 0.00 | 0.00 | 50 | |
| 20260504200527 | 67 | 262 | 11.3 | 12.2 | 0.00 | 0.00 | 0.00 | 48 | |
| 20260504200325 | 67 | 282 | 7.0 | 12.2 | 0.00 | 0.00 | 0.00 | 49 | |
| 20260504200123 | 66 | 267 | 9.6 | 18.2 | 0.00 | 0.00 | 0.00 | 50 | |
| 20260504195921 | 66 | 255 | 7.0 | 18.2 | 0.00 | 0.00 | 0.00 | 49 | |
| 20260504195720 | 66 | 255 | 9.6 | 13.9 | 0.00 | 0.00 | 0.00 | 50 | |
| 20260504195517 | 66 | 262 | 10.4 | 13.9 | 0.00 | 0.00 | 0.00 | 49 | |
| 20260504195316 | 67 | 264 | 10.4 | 14.8 | 0.00 | 0.00 | 0.00 | 50 | |
| 20260504194710 | 67 | 274 | 6.1 | 11.3 | 0.00 | 0.00 | 0.00 | 47 | |
| 20260504194509 | 67 | 268 | 9.6 | 11.3 | 0.00 | 0.00 | 0.00 | 48 | |
| 20260504194305 | 67 | 247 | 5.2 | 13.0 | 0.00 | 0.00 | 0.00 | 49 | |
| 20260504194105 | 67 | 185 | 0.9 | 13.0 | 0.00 | 0.00 | 0.00 | 49 | |
| 20260504193903 | 67 | 267 | 3.5 | 13.0 | 0.00 | 0.00 | 0.00 | 52 | |
| 20260504193701 | 66 | 258 | 8.7 | 12.2 | 0.00 | 0.00 | 0.00 | 50 | |
| 20260504193457 | 66 | 246 | 11.3 | 12.2 | 0.00 | 0.00 | 0.00 | 49 | |
| 20260504193257 | 67 | 258 | 11.3 | 12.2 | 0.00 | 0.00 | 0.00 | 49 | |
| 20260504193053 | 66 | 260 | 6.1 | 12.2 | 0.00 | 0.00 | 0.00 | 49 | |
| 20260504192853 | 66 | 278 | 5.2 | 12.2 | 0.00 | 0.00 | 0.00 | 49 | |
| 20260504192652 | 66 | 275 | 7.8 | 17.4 | 0.00 | 0.00 | 0.00 | 49 | |
| 20260504192248 | 65 | 270 | 12.2 | 15.6 | 0.00 | 0.00 | 0.00 | 49 | |
| 20260504192046 | 65 | 262 | 8.7 | 15.6 | 0.00 | 0.00 | 0.00 | 50 | |
| 20260504191846 | 66 | 262 | 7.0 | 15.6 | 0.00 | 0.00 | 0.00 | 51 | |
| 20260504191440 | 65 | 281 | 15.6 | 13.9 | 0.00 | 0.00 | 0.00 | 51 | |
| 20260504191240 | 65 | 278 | 9.6 | 15.6 | 0.00 | 0.00 | 0.00 | 49 | |
| 20260504191036 | 65 | 250 | 5.2 | 15.6 | 0.00 | 0.00 | 0.00 | 50 | |
| 20260504190834 | 65 | 246 | 9.6 | 15.6 | 0.00 | 0.00 | 0.00 | 50 | |
| 20260504190632 | 65 | 254 | 10.4 | 15.6 | 0.00 | 0.00 | 0.00 | 50 | |
| 20260504190229 | 65 | 247 | 10.4 | 10.4 | 0.00 | 0.00 | 0.00 | 49 | |
| 20260504190027 | 66 | 271 | 7.8 | 10.4 | 0.00 | 0.00 | 0.00 | 49 | |
| 20260504185825 | 66 | 282 | 7.8 | 10.4 | 0.00 | 0.00 | 0.00 | 53 | |
| 20260504185623 | 65 | 272 | 5.2 | 12.2 | 0.00 | 0.00 | 0.00 | 52 | |
| 20260504185421 | 66 | 272 | 7.0 | 12.2 | 0.00 | 0.00 | 0.00 | 53 | |
| 20260504185219 | 65 | 306 | 0.9 | 11.3 | 0.00 | 0.00 | 0.00 | 53 | |
| 20260504184816 | 66 | 261 | 4.3 | 7.0 | 0.00 | 0.00 | 0.00 | 50 | |
| 20260504184614 | 66 | 233 | 0.9 | 7.0 | 0.00 | 0.00 | 0.00 | 52 | |
| 20260504184410 | 66 | 239 | 1.7 | 7.0 | 0.00 | 0.00 | 0.00 | 51 | |
| 20260504184210 | 66 | 258 | 1.7 | 8.7 | 0.00 | 0.00 | 0.00 | 53 | |
| 20260504184006 | 66 | 187 | 2.6 | 8.7 | 0.00 | 0.00 | 0.00 | 53 | |
| 20260504183804 | 66 | 188 | 7.0 | 9.6 | 0.00 | 0.00 | 0.00 | 52 | |
| 20260504183604 | 66 | 277 | 1.7 | 9.6 | 0.00 | 0.00 | 0.00 | 53 | |
| 20260504183402 | 65 | 210 | 0.9 | 9.6 | 0.00 | 0.00 | 0.00 | 55 | |
| 20260504183200 | 65 | 225 | 4.3 | 10.4 | 0.00 | 0.00 | 0.00 | 57 | |
| 20260504182958 | 65 | 22 | 0.9 | 10.4 | 0.00 | 0.00 | 0.00 | 55 | |
| 20260504182756 | 64 | 260 | 7.0 | 10.4 | 0.00 | 0.00 | 0.00 | 55 | |
| 20260504182554 | 64 | 206 | 8.7 | 10.4 | 0.00 | 0.00 | 0.00 | 56 | |
| 20260504182353 | 64 | 271 | 7.0 | 10.4 | 0.00 | 0.00 | 0.00 | 52 | |
| 20260504182149 | 64 | 262 | 5.2 | 10.4 | 0.00 | 0.00 | 0.00 | 52 | |
| 20260504181949 | 65 | 296 | 1.7 | 10.4 | 0.00 | 0.00 | 0.00 | 55 | |
| 20260504181745 | 65 | 222 | 6.1 | 7.8 | 0.00 | 0.00 | 0.00 | 54 | |
| 20260504181545 | 65 | 262 | 5.2 | 7.8 | 0.00 | 0.00 | 0.00 | 53 | |
| 20260504181343 | 65 | 265 | 6.1 | 7.8 | 0.00 | 0.00 | 0.00 | 54 | |
| 20260504181141 | 65 | 261 | 1.7 | 8.7 | 0.00 | 0.00 | 0.00 | 56 | |
| 20260504180942 | 65 | 202 | 0.9 | 8.7 | 0.00 | 0.00 | 0.00 | 55 | |
| 20260504180737 | 64 | 182 | 5.2 | 12.2 | 0.00 | 0.00 | 0.00 | 57 | |
| 20260504180535 | 64 | 260 | 3.5 | 12.2 | 0.00 | 0.00 | 0.00 | 57 | |
| 20260504180332 | 63 | 167 | 2.6 | 12.2 | 0.00 | 0.00 | 0.00 | 59 | |
| 20260504180132 | 63 | 257 | 9.6 | 13.9 | 0.00 | 0.00 | 0.00 | 57 | |
| 20260504175934 | 63 | 282 | 4.3 | 13.9 | 0.00 | 0.00 | 0.00 | 58 | |
| 20260504175726 | 64 | 271 | 10.4 | 9.6 | 0.00 | 0.00 | 0.00 | 56 | |
| 20260504175526 | 63 | 267 | 13.0 | 9.6 | 0.00 | 0.00 | 0.00 | 57 | |
| 20260504175324 | 63 | 268 | 8.7 | 9.6 | 0.00 | 0.00 | 0.00 | 59 | |
| 20260504175122 | 63 | 270 | 7.8 | 13.9 | 0.00 | 0.00 | 0.00 | 58 | |
| 20260504174920 | 63 | 257 | 7.0 | 13.9 | 0.00 | 0.00 | 0.00 | 55 | |
| 20260504174718 | 63 | 261 | 12.2 | 9.6 | 0.00 | 0.00 | 0.00 | 54 | |
| 20260504174517 | 64 | 258 | 4.3 | 9.6 | 0.00 | 0.00 | 0.00 | 55 | |
| 20260504174113 | 65 | 296 | 0.9 | 6.1 | 0.00 | 0.00 | 0.00 | 56 | |
| 20260504173911 | 64 | 230 | 0.0 | 6.1 | 0.00 | 0.00 | 0.00 | 57 | |
| 20260504173709 | 64 | 227 | 3.5 | 11.3 | 0.00 | 0.00 | 0.00 | 58 | |
| 20260504173507 | 64 | 281 | 0.9 | 11.3 | 0.00 | 0.00 | 0.00 | 58 | |
| 20260504173305 | 64 | 288 | 2.6 | 10.4 | 0.00 | 0.00 | 0.00 | 61 | |
| 20260504173103 | 63 | 203 | 1.7 | 10.4 | 0.00 | 0.00 | 0.00 | 60 | |
| 20260504172901 | 64 | 289 | 2.6 | 10.4 | 0.00 | 0.00 | 0.00 | 61 | |
| 20260504172700 | 64 | 251 | 1.7 | 8.7 | 0.00 | 0.00 | 0.00 | 58 | |
| 20260504172458 | 64 | 282 | 5.2 | 8.7 | 0.00 | 0.00 | 0.00 | 59 | |
| 20260504172256 | 64 | 254 | 6.1 | 8.7 | 0.00 | 0.00 | 0.00 | 61 | |
| 20260504172052 | 63 | 209 | 3.5 | 8.7 | 0.00 | 0.00 | 0.00 | 62 | |
| 20260504171852 | 63 | 199 | 1.7 | 8.7 | 0.00 | 0.00 | 0.00 | 61 | |
| 20260504171650 | 63 | 275 | 1.7 | 10.4 | 0.00 | 0.00 | 0.00 | 63 | |
| 20260504171448 | 62 | 258 | 7.0 | 10.4 | 0.00 | 0.00 | 0.00 | 63 | |
| 20260504171246 | 62 | 220 | 4.3 | 11.3 | 0.00 | 0.00 | 0.00 | 64 | |
| 20260504171045 | 62 | 286 | 7.0 | 11.3 | 0.00 | 0.00 | 0.00 | 65 | |
| 20260504170439 | 62 | 264 | 6.1 | 12.2 | 0.00 | 0.00 | 0.00 | 63 | |
| 20260504170237 | 62 | 203 | 0.9 | 9.6 | 0.00 | 0.00 | 0.00 | 63 | |
| 20260504160340 | 61 | 80 | 0.0 | 5.2 | 0.00 | 0.00 | 0.00 | 67 | |
| 20260504160139 | 61 | 150 | 2.6 | 7.0 | 0.00 | 0.00 | 0.00 | 67 | |
| 20260504151052 | 58 | 73 | 1.7 | 2.6 | 0.00 | 0.00 | 0.00 | 78 | |
| 20260504150849 | 58 | 127 | 1.7 | 2.6 | 0.00 | 0.00 | 0.00 | 78 | |
| 20260504150648 | 58 | 109 | 2.6 | 5.2 | 0.00 | 0.00 | 0.00 | 79 | |
| 20260504150244 | 57 | 115 | 2.6 | 1.7 | 0.00 | 0.00 | 0.00 | 78 | |
| 20260504141157 | 54 | 147 | 0.0 | 0.0 | 0.00 | 0.00 | 0.00 | 91 | |
| 20260504140955 | 53 | 147 | 0.0 | 0.0 | 0.00 | 0.00 | 0.00 | 91 | |
| 20260504140753 | 53 | 147 | 0.0 | 0.0 | 0.00 | 0.00 | 0.00 | 91 | |
| 20260504140351 | 53 | 147 | 0.0 | 0.0 | 0.00 | 0.00 | 0.00 | 91 | |
| 20260504130656 | 53 | 74 | 0.0 | 0.0 | 0.00 | 0.00 | 0.00 | 90 | |
| 20260504130454 | 53 | 74 | 0.0 | 0.0 | 0.00 | 0.00 | 0.00 | 90 | |
| 20260504130252 | 53 | 74 | 0.0 | 0.0 | 0.00 | 0.00 | 0.00 | 90 | |
| 20260504120155 | 54 | 208 | 0.0 | 0.0 | 0.00 | 0.00 | 0.00 | 89 | |
| 20260504110703 | 54 | 226 | 0.0 | 0.0 | 0.00 | 0.00 | 0.00 | 89 | |
| 20260504110459 | 54 | 226 | 0.0 | 0.0 | 0.00 | 0.00 | 0.00 | 89 | |
| 20260504110259 | 54 | 226 | 0.0 | 0.0 | 0.00 | 0.00 | 0.00 | 88 | |
| 20260504100606 | 56 | 133 | 0.0 | 2.6 | 0.00 | 0.00 | 0.00 | 87 | |
| 20260504100404 | 56 | 212 | 0.0 | 2.6 | 0.00 | 0.00 | 0.00 | 87 | |
| 20260504100202 | 56 | 178 | 0.0 | 0.0 | 0.00 | 0.00 | 0.00 | 87 | |
| 20260504081823 | 56 | 260 | 0.0 | 0.0 | 0.00 | 0.00 | 0.00 | 85 | |
| 20260504081624 | 56 | 260 | 0.0 | 0.0 | 0.00 | 0.00 | 0.00 | 85 | |
| 20260504081421 | 56 | 260 | 0.0 | 0.0 | 0.00 | 0.00 | 0.00 | 85 | |
| 20260504081219 | 56 | 260 | 0.0 | 0.0 | 0.00 | 0.00 | 0.00 | 85 | |
| 20260504081017 | 56 | 260 | 0.0 | 0.0 | 0.00 | 0.00 | 0.00 | 85 | |
| 20260504080815 | 56 | 260 | 0.0 | 0.0 | 0.00 | 0.00 | 0.00 | 85 | |
| 20260504080614 | 56 | 260 | 0.0 | 0.0 | 0.00 | 0.00 | 0.00 | 85 | |
| 20260504080412 | 56 | 260 | 0.0 | 0.0 | 0.00 | 0.00 | 0.00 | 85 | |
| 20260504080210 | 56 | 260 | 0.0 | 0.0 | 0.00 | 0.00 | 0.00 | 86 | |
| 20260504060217 | 56 | 260 | 0.0 | 0.0 | 0.00 | 0.00 | 0.00 | 84 | |
| 20260504050725 | 57 | 240 | 0.0 | 3.5 | 0.00 | 0.00 | 0.00 | 83 | |
| 20260504050322 | 57 | 272 | 0.9 | 4.3 | 0.00 | 0.00 | 0.00 | 83 | |
| 20260504050121 | 57 | 274 | 0.9 | 4.3 | 0.00 | 0.00 | 0.00 | 83 | |
| 20260504045918 | 57 | 272 | 2.6 | 4.3 | 0.00 | 0.00 | 0.00 | 83 | |
| 20260504045716 | 57 | 275 | 3.5 | 4.3 | 0.00 | 0.00 | 0.00 | 83 | |
| 20260504045514 | 57 | 278 | 2.6 | 4.3 | 0.00 | 0.00 | 0.00 | 83 | |
| 20260504045312 | 57 | 279 | 2.6 | 1.7 | 0.00 | 0.00 | 0.00 | 82 | |
| 20260504045110 | 57 | 240 | 0.0 | 1.7 | 0.00 | 0.00 | 0.00 | 82 | |
| 20260504044909 | 57 | 260 | 0.0 | 1.7 | 0.00 | 0.00 | 0.00 | 82 | |
| 20260504044707 | 57 | 247 | 0.0 | 1.7 | 0.00 | 0.00 | 0.00 | 82 | |
| 20260504044505 | 57 | 244 | 0.0 | 1.7 | 0.00 | 0.00 | 0.00 | 82 | |
| 20260504044304 | 57 | 260 | 0.9 | 0.0 | 0.00 | 0.00 | 0.00 | 82 | |
| 20260504044102 | 57 | 254 | 0.0 | 0.0 | 0.00 | 0.00 | 0.00 | 82 | |
| 20260504043859 | 57 | 254 | 0.0 | 0.0 | 0.00 | 0.00 | 0.00 | 82 | |
| 20260504043253 | 57 | 254 | 0.0 | 0.0 | 0.00 | 0.00 | 0.00 | 82 | |
| 20260504043051 | 57 | 254 | 0.0 | 0.0 | 0.00 | 0.00 | 0.00 | 82 | |
| 20260504042850 | 57 | 254 | 0.0 | 0.0 | 0.00 | 0.00 | 0.00 | 82 | |
| 20260504042446 | 57 | 254 | 0.0 | 4.3 | 0.00 | 0.00 | 0.00 | 82 | |
| 20260504042244 | 57 | 254 | 0.0 | 4.3 | 0.00 | 0.00 | 0.00 | 82 | |
| 20260504041840 | 57 | 293 | 3.5 | 4.3 | 0.00 | 0.00 | 0.00 | 82 | |
| 20260504041638 | 57 | 275 | 0.9 | 4.3 | 0.00 | 0.00 | 0.00 | 82 | |
| 20260504041436 | 57 | 220 | 0.0 | 4.3 | 0.00 | 0.00 | 0.00 | 82 | |
| 20260504041234 | 57 | 217 | 0.0 | 2.6 | 0.00 | 0.00 | 0.00 | 82 | |
| 20260504041032 | 57 | 257 | 0.9 | 2.6 | 0.00 | 0.00 | 0.00 | 82 | |
| 20260504040830 | 57 | 223 | 0.0 | 2.6 | 0.00 | 0.00 | 0.00 | 82 | |
| 20260504040628 | 57 | 278 | 1.7 | 0.0 | 0.00 | 0.00 | 0.00 | 83 | |
| 20260504040427 | 57 | 267 | 0.0 | 0.0 | 0.00 | 0.00 | 0.00 | 82 | |
| 20260504040023 | 57 | 248 | 0.0 | 0.0 | 0.00 | 0.00 | 0.00 | 82 | |
| 20260504035821 | 58 | 248 | 0.0 | 0.0 | 0.00 | 0.00 | 0.00 | 82 | |
| 20260504035013 | 58 | 248 | 0.0 | 0.9 | 0.00 | 0.00 | 0.00 | 82 | |
| 20260504034812 | 58 | 248 | 0.0 | 1.7 | 0.00 | 0.00 | 0.00 | 82 | |
| 20260504034610 | 58 | 227 | 0.0 | 1.7 | 0.00 | 0.00 | 0.00 | 82 | |
| 20260504034408 | 58 | 227 | 0.0 | 1.7 | 0.00 | 0.00 | 0.00 | 82 | |
| 20260504034004 | 58 | 219 | 0.9 | 0.0 | 0.00 | 0.00 | 0.00 | 82 | |
| 20260504033802 | 58 | 248 | 0.0 | 1.7 | 0.00 | 0.00 | 0.00 | 82 | |
| 20260504033600 | 58 | 248 | 0.0 | 1.7 | 0.00 | 0.00 | 0.00 | 81 | |
| 20260504033358 | 58 | 248 | 0.0 | 1.7 | 0.00 | 0.00 | 0.00 | 82 | |
| 20260504033156 | 58 | 267 | 0.9 | 1.7 | 0.00 | 0.00 | 0.00 | 82 | |
| 20260504032954 | 58 | 260 | 0.0 | 1.7 | 0.00 | 0.00 | 0.00 | 82 | |
| 20260504032752 | 58 | 272 | 0.9 | 2.6 | 0.00 | 0.00 | 0.00 | 82 | |
| 20260504032550 | 58 | 274 | 1.7 | 2.6 | 0.00 | 0.00 | 0.00 | 81 | |
| 20260504032349 | 58 | 225 | 0.0 | 2.6 | 0.00 | 0.00 | 0.00 | 81 | |
| 20260504032147 | 58 | 225 | 0.0 | 0.0 | 0.00 | 0.00 | 0.00 | 81 | |
| 20260504031945 | 58 | 225 | 0.0 | 0.0 | 0.00 | 0.00 | 0.00 | 81 | |
| 20260504031741 | 58 | 227 | 0.0 | 0.0 | 0.00 | 0.00 | 0.00 | 81 | |
| 20260504031541 | 58 | 227 | 0.0 | 0.0 | 0.00 | 0.00 | 0.00 | 81 | |
| 20260504031339 | 58 | 227 | 0.0 | 0.0 | 0.00 | 0.00 | 0.00 | 81 | |
| 20260504031137 | 58 | 227 | 0.0 | 2.6 | 0.00 | 0.00 | 0.00 | 81 | |
| 20260504030935 | 58 | 227 | 0.0 | 2.6 | 0.00 | 0.00 | 0.00 | 81 | |
| 20260504030733 | 58 | 227 | 0.0 | 7.0 | 0.00 | 0.00 | 0.00 | 81 | |
| 20260504030530 | 58 | 274 | 1.7 | 7.0 | 0.00 | 0.00 | 0.00 | 81 | |
| 20260504030329 | 58 | 277 | 0.9 | 7.0 | 0.00 | 0.00 | 0.00 | 81 | |
| 20260504030128 | 58 | 268 | 3.5 | 6.1 | 0.00 | 0.00 | 0.00 | 81 | |
| 20260504025924 | 58 | 279 | 5.2 | 6.1 | 0.00 | 0.00 | 0.00 | 81 | |
| 20260504025723 | 58 | 271 | 3.5 | 3.5 | 0.00 | 0.00 | 0.00 | 81 | |
| 20260504025522 | 58 | 281 | 4.3 | 3.5 | 0.00 | 0.00 | 0.00 | 81 | |
| 20260504025320 | 58 | 291 | 0.9 | 6.1 | 0.00 | 0.00 | 0.00 | 81 | |
| 20260504024916 | 58 | 302 | 0.9 | 6.1 | 0.00 | 0.00 | 0.00 | 81 | |
| 20260504024714 | 58 | 255 | 0.9 | 6.1 | 0.00 | 0.00 | 0.00 | 81 | |
| 20260504024512 | 58 | 260 | 0.0 | 6.1 | 0.00 | 0.00 | 0.00 | 81 |